Location: ???? ???? ?????
(31.2680°N, 31.7283°E)
Time: 19:31:13
(UTC+00:00)

DMSP B5D2-2 - Pass Details

Date: 13 July 2020
Orbit: 789 x 807 km, 98.3° (Epoch: 05 August)

Event Time Altitude Azimuth Distance (km) Brightness Sun altitude
Rises 17:31:05 0° 16° (NNE) 3,289 7.5 -6.8°
Reaches altitude 10° 17:33:27 10° 19° (NNE) 2,355 6.7 -7.3°
Maximum altitude 17:38:36 64° 101° (E) 868 4.1 -8.2°
Drops below altitude 10° 17:43:44 10° 183° (S) 2,343 6.2 -9.1°
Sets 17:46:04 0° 186° (S) 3,269 7.0 -9.6°
